This is the latest recevied weather packets stored in our database for station/object E25RIV-1. If no packets are shown the sender has not sent any weather packets the latest 1 day(s).
| Time | Temp. | Humidity | Pressure | Rain* | Wind** | Luminosity | Snow |
|---|---|---|---|---|---|---|---|
| 1778064127 | 27.22° C | 99% | 1002 hPa | - | - | 0 W/m² | - |
| 1778062878 | 28.33° C | 99% | 1002 hPa | - | - | 0 W/m² | - |
| 1778057888 | 36.67° C | 52% | 993 hPa | - | - | 0 W/m² | - |
| 1778056639 | 38.33° C | 46% | 990 hPa | - | - | 0 W/m² | - |
| 1778056015 | 38.89° C | 45% | 990 hPa | - | - | 0 W/m² | - |
| 1778054766 | 38.33° C | 45% | 989 hPa | - | - | 0 W/m² | - |
| 1778054142 | 38.33° C | 46% | 990 hPa | - | - | 0 W/m² | - |
| 1778053518 | 37.78° C | 47% | 992 hPa | - | - | 0 W/m² | - |
| 1778052894 | 37.22° C | 49% | 992 hPa | - | - | 0 W/m² | - |
| 1778052270 | 37.22° C | 48% | 992 hPa | - | - | 0 W/m² | - |
| 1778051646 | 37.78° C | 49% | 992 hPa | - | - | 0 W/m² | - |
| 1778051022 | 37.78° C | 48% | 992 hPa | - | - | 0 W/m² | - |
| 1778050398 | 37.78° C | 47% | 991 hPa | - | - | 0 W/m² | - |
| 1778049774 | 37.78° C | 49% | 993 hPa | - | - | 0 W/m² | - |
| 1778049150 | 38.33° C | 45% | 990 hPa | - | - | 0 W/m² | - |
| 1778047902 | 37.22° C | 50% | 994 hPa | - | - | 0 W/m² | - |
| 1778047278 | 36.67° C | 51% | 995 hPa | - | - | 0 W/m² | - |
| 1778046654 | 37.22° C | 49% | 994 hPa | - | - | 0 W/m² | - |
| 1778046030 | 37.78° C | 50% | 994 hPa | - | - | 0 W/m² | - |
| 1778044782 | 37.22° C | 49% | 994 hPa | - | - | 0 W/m² | - |
| 1778044158 | 37.78° C | 49% | 993 hPa | - | - | 0 W/m² | - |
| 1778042910 | 37.78° C | 49% | 994 hPa | - | - | 0 W/m² | - |
| 1778042286 | 37.22° C | 51% | 995 hPa | - | - | 0 W/m² | - |
| 1778041662 | 37.22° C | 51% | 994 hPa | - | - | 0 W/m² | - |
| 1778041038 | 37.22° C | 52% | 995 hPa | - | - | 0 W/m² | - |
* Rain since midnight (hover to see other rain measurements)
** Current wind speed in m/s (hover to see current wind gust speed)